TimeCDT,TemperatureF,Dew PointF,Humidity,Sea Level PressureIn,VisibilityMPH,Wind Direction,Wind SpeedMPH,Gust SpeedMPH,PrecipitationIn,Events,Conditions,WindDirDegrees,DateUTC
12:58 AM,75.9,64.4,67,29.93,10.0,SSE,5.8,-,N/A,,Clear,160,2013-06-13 05:58:00
1:58 AM,73.6,64.6,73,29.93,10.0,South,5.8,-,N/A,,Clear,170,2013-06-13 06:58:00
2:58 AM,72.7,64.4,75,29.93,10.0,SE,5.8,-,N/A,,Clear,130,2013-06-13 07:58:00
3:58 AM,70.2,65.3,85,29.93,10.0,ESE,3.5,-,N/A,,Clear,120,2013-06-13 08:58:00
4:58 AM,69.6,65.7,87,29.94,10.0,ENE,2.3,-,N/A,,Clear,60,2013-06-13 09:58:00
5:58 AM,69.3,65.8,89,29.95,10.0,ESE,3.5,-,N/A,,Clear,120,2013-06-13 10:58:00
6:58 AM,69.8,66.2,88,29.97,10.0,ENE,2.3,-,N/A,,Clear,70,2013-06-13 11:58:00
7:58 AM,75.9,67.1,74,29.99,10.0,South,4.6,-,N/A,,Clear,190,2013-06-13 12:58:00
8:58 AM,84.4,67.5,57,30.00,10.0,SW,10.4,-,N/A,,Clear,230,2013-06-13 13:58:00
9:58 AM,88.3,67.1,49,30.00,10.0,SW,9.2,-,N/A,,Clear,220,2013-06-13 14:58:00
10:58 AM,92.5,65.7,41,29.99,10.0,SW,10.4,-,N/A,,Clear,230,2013-06-13 15:58:00
11:58 AM,95.0,63.9,36,29.99,10.0,SW,5.8,-,N/A,,Clear,220,2013-06-13 16:58:00
12:58 PM,97.0,64.2,34,29.98,10.0,South,16.1,21.9,N/A,,Clear,190,2013-06-13 17:58:00
1:58 PM,97.5,63.5,32,29.96,10.0,South,11.5,24.2,N/A,,Partly Cloudy,170,2013-06-13 18:58:00
2:58 PM,99.3,62.6,30,29.93,10.0,South,13.8,18.4,N/A,,Clear,170,2013-06-13 19:58:00
3:58 PM,99.9,60.3,27,29.90,10.0,South,16.1,19.6,N/A,,Clear,170,2013-06-13 20:58:00
4:58 PM,100.6,60.4,27,29.88,10.0,SSE,17.3,21.9,N/A,,Clear,150,2013-06-13 21:58:00
5:58 PM,99.9,61.9,29,29.85,10.0,SSE,9.2,-,N/A,,Clear,160,2013-06-13 22:58:00
6:58 PM,99.0,61.7,29,29.84,10.0,SSE,15.0,-,N/A,,Clear,160,2013-06-13 23:58:00
7:58 PM,96.4,60.6,30,29.84,10.0,SSE,10.4,-,N/A,,Clear,150,2013-06-14 00:58:00
8:58 PM,91.4,61.5,37,29.86,10.0,SSE,10.4,-,N/A,,Clear,150,2013-06-14 01:58:00
9:58 PM,84.4,63.0,48,29.88,10.0,ESE,8.1,-,N/A,,Clear,120,2013-06-14 02:58:00
10:58 PM,85.3,66.7,54,29.90,10.0,SE,12.7,-,N/A,,Clear,130,2013-06-14 03:58:00
11:58 PM,82.8,68.4,62,29.91,10.0,ESE,8.1,-,N/A,,Clear,120,2013-06-14 04:58:00